Weather reports worldwide

Advertisment
Aboyne, United Kingdom (3080): temperature & dewpoint: 15.01.2020 23:00:00 - 21.01.2020 23:00:00 (GMT)Aboyne, United Kingdom (3080): temperature -20cm & temperature -100cm: 15.01.2020 23:00:00 - 21.01.2020 23:00:00 (GMT)Aboyne, United Kingdom (3080): wind speed & gusts: 15.01.2020 23:00:00 - 21.01.2020 23:00:00 (GMT)Aboyne, United Kingdom (3080): wind direction: 15.01.2020 23:00:00 - 21.01.2020 23:00:00 (GMT)Aboyne, United Kingdom (3080): reduced air pressure: 15.01.2020 23:00:00 - 21.01.2020 23:00:00 (GMT)Aboyne, United Kingdom (3080): visibility: 15.01.2020 23:00:00 - 21.01.2020 23:00:00 (GMT)Aboyne, United Kingdom (3080): precipitation: 15.01.2020 23:00:00 - 21.01.2020 23:00:00 (GMT)
Date & Time tt [°C] td [°C] tt -20cm [°C] tt -100cm [°C] ff [km/h] ff [kn] fx [km/h] fx [kn] dd ppp [hPa] vv [km] rr [mm]
21.01.2020 23:00:00 9,2 8,0 - - 5 3 - - NNE 1034,8 50 0,0
21.01.2020 22:00:00 6,1 5,8 - - 5 3 - - WSW 1034,8 50 0,0
21.01.2020 21:00:00 4,4 4,2 - - 4 2 - - SW 1035,3 40 0,0
21.01.2020 20:00:00 3,5 2,8 - - 4 2 - - W 1035,3 50 0,0
21.01.2020 19:00:00 5,4 4,4 - - 4 2 - - ENE 1035,5 50 0,0
21.01.2020 18:00:00 5,7 3,4 - - 2 1 - - N 1034,9 45 0,0
21.01.2020 17:00:00 9,0 6,4 - - 4 2 - - WSW 1034,4 50 0,0
21.01.2020 16:00:00 10,8 6,8 - - 9 5 - - W 1034,0 50 0,0
21.01.2020 15:00:00 12,1 6,9 - - 13 7 - - W 1033,9 50 0,0
21.01.2020 14:00:00 12,4 6,8 - - 15 8 - - W 1034,6 20 0,0
21.01.2020 13:00:00 12,5 6,7 - - 21 11 - - W 1034,9 40 0,0
21.01.2020 12:00:00 11,8 6,5 - - 8 4 - - W 1035,2 50 0,0
21.01.2020 11:00:00 10,9 6,3 - - 18 10 - - W 1035,8 50 0,0
21.01.2020 10:00:00 8,3 6,9 - - 9 5 - - W 1036,2 50 0,0
21.01.2020 09:00:00 5,3 3,8 2,7 4,0 8 4 - - NW 1036,1 50 0,0
21.01.2020 08:00:00 7,4 5,3 - - 11 6 - - WNW 1035,7 45 0,0
21.01.2020 07:00:00 8,1 5,0 - - 4 2 - - S 1035,6 50 0,0
21.01.2020 06:00:00 9,4 5,9 - - 9 5 - - W 1035,3 50 0,0
21.01.2020 05:00:00 9,8 5,8 - - 15 8 - - W 1035,3 50 0,0
21.01.2020 04:00:00 10,2 5,7 - - 18 10 - - W 1035,0 50 0,0
21.01.2020 03:00:00 9,9 5,4 - - 11 6 - - W 1034,7 50 0,0
21.01.2020 02:00:00 10,0 5,4 - - 18 10 - - W 1034,5 50 0,0
21.01.2020 01:00:00 9,6 5,1 - - 21 11 - - WSW 1034,9 50 0,0
21.01.2020 00:00:00 9,2 4,7 - - 11 6 - - WSW 1035,3 50 0,0
20.01.2020 23:00:00 8,9 4,2 - - 5 3 - - W 1035,5 50 0,0
20.01.2020 22:00:00 9,2 4,1 - - 18 10 - - WNW 1035,7 45 0,0
20.01.2020 21:00:00 8,2 3,1 - - 15 8 46 25 W 1035,6 50 0,0
20.01.2020 20:00:00 8,2 3,1 - - 26 14 - - WSW 1035,8 50 0,0
20.01.2020 19:00:00 6,6 1,8 - - 13 7 - - W 1036,1 45 0,0
20.01.2020 18:00:00 6,7 2,3 - - 15 8 - - WNW 1036,0 35 0,0
20.01.2020 17:00:00 7,2 2,0 - - 15 8 - - W 1036,2 50 0,0
20.01.2020 16:00:00 9,0 2,3 - - 24 13 - - W 1036,2 50 0,0
20.01.2020 15:00:00 10,5 2,4 - - 28 15 - - W 1035,7 45 0,0
20.01.2020 14:00:00 10,8 2,5 - - 26 14 - - W 1035,6 45 0,0
20.01.2020 13:00:00 11,2 2,3 - - 21 11 - - W 1035,9 50 0,0
20.01.2020 12:00:00 10,9 3,1 - - 4 2 - - SSE 1036,4 35 0,0
20.01.2020 11:00:00 8,8 2,9 - - 11 6 - - WSW 1037,8 35 0,0
20.01.2020 10:00:00 7,9 2,7 - - 18 10 - - WSW 1038,1 35 0,0
20.01.2020 09:00:00 7,3 3,2 2,5 4,0 18 10 - - W 1038,1 50 0,0
20.01.2020 08:00:00 7,9 4,2 - - 21 11 - - W 1038,0 45 0,0
20.01.2020 07:00:00 8,4 4,1 - - 28 15 - - W 1037,9 50 0,0
20.01.2020 06:00:00 7,1 3,0 - - 9 5 - - NNW 1037,9 45 0,0
20.01.2020 05:00:00 7,3 3,1 - - 15 8 - - W 1037,8 50 0,0
20.01.2020 04:00:00 8,4 2,8 - - 31 17 55 30 WSW 1037,4 50 0,0
20.01.2020 03:00:00 7,5 2,2 - - 37 20 57 31 WSW 1037,4 45 0,0
20.01.2020 02:00:00 7,8 1,9 - - 31 17 54 29 W 1037,5 50 0,0
20.01.2020 01:00:00 7,8 2,0 - - 34 18 46 25 WSW 1037,8 40 0,0
20.01.2020 00:00:00 7,8 2,2 - - 37 20 67 36 W 1037,9 40 0,0
19.01.2020 23:00:00 7,5 1,9 - - 34 18 57 31 W 1036,9 45 0,0
19.01.2020 22:00:00 7,9 1,3 - - 28 15 - - W 1036,6 45 0,0
19.01.2020 21:00:00 8,1 0,5 - - 21 11 52 28 W 1036,4 45 0,0
19.01.2020 20:00:00 8,2 -1,2 - - 35 19 54 29 W 1036,3 50 0,0
19.01.2020 19:00:00 8,4 -2,6 - - 21 11 - - W 1037,0 50 0,0
19.01.2020 18:00:00 8,2 -2,3 - - 22 12 52 28 W 1036,9 50 0,0
19.01.2020 17:00:00 8,0 -3,1 - - 24 13 48 26 W 1037,1 45 0,0
19.01.2020 16:00:00 7,2 -4,2 - - 21 11 48 26 W 1037,8 45 0,0
19.01.2020 15:00:00 7,6 -4,6 - - 28 15 - - W 1037,0 50 0,0
19.01.2020 14:00:00 7,8 -3,8 - - 15 8 - - WSW 1036,9 50 0,0
19.01.2020 13:00:00 7,5 -2,5 - - 26 14 52 28 W 1038,0 45 0,0
19.01.2020 12:00:00 7,2 -0,5 - - 9 5 - - SW 1038,7 45 0,0
19.01.2020 11:00:00 3,1 0,1 - - 4 2 - - E 1039,4 28 0,0
19.01.2020 10:00:00 -0,3 -1,6 - - 2 1 - - ENE 1040,2 30 0,0
19.01.2020 09:00:00 -0,8 -3,2 2,7 4,2 9 5 - - E 1040,0 45 0,0
19.01.2020 08:00:00 0,2 -1,5 - - 8 4 - - NW 1039,5 45 0,0
19.01.2020 07:00:00 -1,0 -3,2 - - 4 2 - - NW 1039,2 30 0,0
19.01.2020 06:00:00 -1,4 -2,8 - - 9 5 - - W 1038,9 40 0,0
19.01.2020 05:00:00 -1,5 -4,1 - - 9 5 - - WNW 1037,7 35 0,0
19.01.2020 04:00:00 -1,3 -3,7 - - 11 6 - - W 1037,1 35 0,0
19.01.2020 03:00:00 -3,0 -5,6 - - 4 2 - - E 1036,8 35 0,0
19.01.2020 02:00:00 0,9 -3,7 - - 9 5 - - WNW 1035,9 40 0,0
19.01.2020 01:00:00 0,8 -2,4 - - 4 2 - - N 1035,6 35 0,0
19.01.2020 00:00:00 3,2 -2,2 - - 13 7 - - WNW 1034,5 45 0,0
18.01.2020 23:00:00 3,8 -1,6 - - 24 13 - - W 1033,4 40 0,0
18.01.2020 22:00:00 3,1 -1,8 - - 16 9 - - WNW 1032,9 40 0,0
18.01.2020 21:00:00 1,3 -2,4 - - 11 6 - - NW 1032,2 30 0,0
18.01.2020 20:00:00 1,1 -2,8 - - 8 4 - - W 1031,7 27 0,0
18.01.2020 19:00:00 2,2 -2,3 - - 9 5 - - WSW 1030,4 27 0,0
18.01.2020 18:00:00 3,7 -1,6 - - 16 9 - - W 1029,0 28 0,0
18.01.2020 17:00:00 4,2 -1,1 - - 21 11 - - WNW 1027,3 30 0,0
18.01.2020 16:00:00 4,2 -1,2 - - 16 9 50 27 WNW 1025,8 30 0,0
18.01.2020 15:00:00 5,0 -1,0 - - 24 13 50 27 WNW 1024,3 28 0,0
18.01.2020 14:00:00 5,3 -1,6 - - 31 17 48 26 WNW 1023,2 35 0,0
18.01.2020 13:00:00 4,6 -1,4 - - 26 14 46 25 W 1022,5 45 0,0
18.01.2020 12:00:00 4,6 -1,8 - - 21 11 - - W 1021,6 45 0,0
18.01.2020 11:00:00 4,6 -1,3 - - 22 12 - - W 1020,9 50 0,0
18.01.2020 10:00:00 3,9 -1,2 - - 18 10 - - W 1019,7 40 0,0
18.01.2020 09:00:00 2,7 -2,3 3,0 4,2 16 9 - - W 1018,6 45 0,0
18.01.2020 08:00:00 2,4 -1,9 - - 13 7 - - W 1017,7 40 0,0
18.01.2020 07:00:00 3,2 -1,8 - - 13 7 - - W 1016,6 45 0,0
18.01.2020 06:00:00 3,1 -2,1 - - 22 12 - - W 1015,5 45 0,0
18.01.2020 05:00:00 2,7 -2,5 - - 21 11 - - W 1014,5 50 0,0
18.01.2020 04:00:00 2,5 -2,5 - - 15 8 - - W 1013,9 40 0,0
18.01.2020 03:00:00 2,7 -2,3 - - 13 7 - - W 1013,2 30 0,0
18.01.2020 02:00:00 3,4 -2,1 - - 21 11 - - W 1011,8 27 0,0
18.01.2020 01:00:00 2,7 -1,4 - - 11 6 - - W 1011,2 30 0,0
18.01.2020 00:00:00 3,8 -1,5 - - 22 12 - - WNW 1010,3 30 0,0
17.01.2020 23:00:00 2,7 -2,3 - - 21 11 - - W 1009,0 29 0,0
17.01.2020 22:00:00 2,7 -2,1 - - 15 8 - - W 1008,1 30 0,0
17.01.2020 21:00:00 3,8 -1,8 - - 16 9 - - W 1007,3 35 0,0
17.01.2020 20:00:00 4,5 -1,2 - - 21 11 - - W 1006,2 35 0,0
17.01.2020 19:00:00 4,2 -0,7 - - 21 11 - - W 1005,6 45 0,0
17.01.2020 18:00:00 2,8 -0,7 - - 11 6 - - WNW 1004,8 35 0,0
17.01.2020 17:00:00 4,0 -0,8 - - 8 4 - - W 1003,9 30 0,0
17.01.2020 16:00:00 4,4 -0,9 - - 18 10 - - WSW 1002,9 28 0,0
17.01.2020 15:00:00 - - - - 18 10 - - W - 25 0,0
17.01.2020 14:00:00 - - - - 21 11 - - W - 50 0,0
17.01.2020 13:00:00 - - - - 28 15 - - SW - - 0,0
17.01.2020 12:00:00 - - - - 13 7 - - WSW - - 0,0
17.01.2020 11:00:00 - - - - 26 14 52 28 WSW - - 0,0
17.01.2020 10:00:00 4,5 -0,6 - - 31 17 52 28 SW 999,6 24 0,0
17.01.2020 09:00:00 4,3 -0,7 3,2 3,2 31 17 - - SW 999,6 45 0,0
17.01.2020 08:00:00 4,2 -0,3 - - 21 11 - - SW 999,7 30 0,0
17.01.2020 07:00:00 4,2 -0,1 - - 22 12 - - SW 999,4 40 0,0
17.01.2020 06:00:00 4,1 -0,6 - - 21 11 - - SSW 999,0 45 0,0
17.01.2020 05:00:00 5,2 -0,5 - - 22 12 48 26 SSW 998,5 45 0,0
17.01.2020 04:00:00 5,4 0,0 - - 34 18 59 32 SW 997,8 50 0,0
17.01.2020 03:00:00 5,9 0,9 - - 37 20 52 28 SW 997,2 50 0,0
17.01.2020 02:00:00 6,5 1,2 - - 35 19 54 29 SW 996,8 50 0,0
17.01.2020 01:00:00 6,3 1,7 - - 28 15 50 27 SW 996,3 50 0,0
17.01.2020 00:00:00 5,6 1,6 - - 21 11 - - WSW 996,0 45 0,0
16.01.2020 23:00:00 5,7 1,4 - - 18 10 - - WSW 994,8 45 0,0
16.01.2020 22:00:00 7,1 3,1 - - 22 12 - - SW 993,9 50 0,0
16.01.2020 21:00:00 8,7 5,7 - - 24 13 50 27 SW 992,2 50 0,4
16.01.2020 20:00:00 8,0 6,4 - - 11 6 - - SW 991,6 35 0,0
16.01.2020 19:00:00 7,1 5,8 - - 13 7 50 27 S 991,4 8 0,2
16.01.2020 18:00:00 6,7 5,1 - - 24 13 48 26 SE 992,3 13 2,6
16.01.2020 17:00:00 5,9 4,4 - - 29 16 54 29 SE 994,2 8 3,8
16.01.2020 16:00:00 5,6 4,3 - - 18 10 - - ESE 995,9 7 1,2
16.01.2020 15:00:00 6,5 3,8 - - 15 8 - - ENE 997,9 26 0,0
16.01.2020 14:00:00 6,4 4,1 - - 18 10 - - E 1000,1 22 0,0
16.01.2020 13:00:00 6,7 4,4 - - 21 11 - - ESE 1002,2 12 0,0
16.01.2020 12:00:00 6,2 4,4 - - 16 9 - - E 1003,5 26 0,2
16.01.2020 11:00:00 6,1 4,4 - - 22 12 - - SE 1004,4 13 0,0
16.01.2020 10:00:00 5,1 4,2 - - 22 12 - - E 1004,5 6 0,0
16.01.2020 09:00:00 5,4 2,8 3,0 3,2 16 9 - - ESE 1005,1 12 0,0
16.01.2020 08:00:00 5,3 1,7 - - 11 6 - - ESE 1005,0 50 0,0
16.01.2020 07:00:00 5,6 0,9 - - 5 3 - - SSE 1005,5 45 0,0
16.01.2020 06:00:00 4,6 0,4 - - 13 7 - - SSE 1005,4 40 0,0
16.01.2020 05:00:00 3,6 -1,5 - - 4 2 - - E 1004,9 45 0,0
16.01.2020 04:00:00 4,8 -0,8 - - 15 8 48 26 SW 1004,9 40 0,0
16.01.2020 03:00:00 5,1 -0,9 - - 28 15 57 31 WSW 1004,1 40 0,0
16.01.2020 02:00:00 5,8 -1,2 - - 34 18 52 28 WSW 1002,7 40 0,0
16.01.2020 01:00:00 5,7 -1,0 - - 29 16 59 32 WSW 1001,3 40 0,0
16.01.2020 00:00:00 5,1 -0,5 - - 18 10 78 42 WSW 1000,2 45 0,0
15.01.2020 23:00:00 6,5 -0,7 - - 41 22 61 33 WSW 998,6 29 0,0

tt = temperature
td = dewpoint
tt -20cm = temperature -20cm
tt -100cm = temperature -100cm
ff = wind speed
fx = gusts
dd = wind direction
ppp = reduced air pressure
vv = visibility
rr = precipitation

Next stations